Location: Glenmont
(42.6048°N, 73.7696°W)
Time: 00:01:04
(UTC+00:00)

Landsat 7 - Pass Details

Date: 08 September 2024
Orbit: 689 x 691 km, 97.9° (Epoch: 14 October)

Event Time Altitude Azimuth Distance (km) Brightness Sun altitude
Rises 23:37:51 0° 171° (S) 3,050 6.9 -4.8°
Reaches altitude 10° 23:40:06 10° 173° (S) 2,138 6.1 -5.2°
Maximum altitude 23:44:46 73° 257° (WSW) 727 4.1 -6.0°
Drops below altitude 10° 23:49:29 10° 343° (NNW) 2,153 6.8 -6.8°
Sets 23:51:45 0° 346° (NNW) 3,074 7.5 -7.3°
